Date,TemperatureHighF,TemperatureAvgF,TemperatureLowF,DewpointHighF,DewpointAvgF,DewpointLowF,HumidityHigh,HumidityAvg,HumidityLow,PressureMaxIn,PressureMinIn,WindSpeedMaxMPH,WindSpeedAvgMPH,GustSpeedMaxMPH,PrecipitationSumIn
2013-4-1,33.5,24.9,16.6,15.7,12.8,10.2,76,61,45,30.21,30.05,17,9,17,0.00
2013-4-2,36.5,29.6,16.9,16.9,14.1,11.5,79,54,40,30.31,30.19,14,6,14,0.00
2013-4-3,46.6,33.8,15.1,31.4,20.4,9.8,80,60,40,30.35,29.99,17,5,17,0.00
2013-4-4,48.1,42.7,34.0,32.9,27.9,19.8,77,57,37,30.14,29.93,17,8,17,0.00
2013-4-5,42.1,34.8,25.0,28.5,21.5,16.9,78,59,38,30.22,29.92,12,5,13,0.00
2013-4-6,47.5,38.5,34.2,35.7,31.0,28.0,78,75,55,29.90,29.53,16,7,16,0.15
2013-4-7,47.3,39.7,35.3,34.6,31.6,29.3,79,73,60,29.91,29.71,9,3,9,0.10
2013-4-8,42.7,39.4,36.5,36.4,33.6,31.4,83,80,78,30.04,29.69,12,6,12,0.31
2013-4-9,43.9,38.0,33.3,32.9,27.9,23.1,79,67,53,30.16,29.99,22,11,22,0.02
2013-4-10,41.0,36.9,32.6,24.7,21.6,17.3,69,54,39,30.17,29.93,21,11,21,0.00
2013-4-11,36.7,32.8,29.0,28.3,23.6,18.0,80,70,47,29.94,29.71,19,11,21,0.05
2013-4-12,35.6,31.1,28.1,28.4,24.9,22.7,82,77,68,29.82,29.67,17,7,17,0.05
2013-4-13,40.0,31.1,24.1,24.8,21.6,17.5,81,69,46,29.93,29.79,9,2,9,0.03
2013-4-14,36.7,30.4,21.2,28.9,23.9,16.0,81,77,60,29.94,29.48,13,5,13,0.22
2013-4-15,40.0,36.4,32.8,30.8,29.0,26.3,81,74,66,29.90,29.48,22,9,22,0.12
2013-4-16,47.3,38.2,33.5,29.4,27.8,25.7,77,67,46,30.29,29.91,15,6,15,0.00
2013-4-17,41.0,36.2,31.3,31.7,28.1,25.0,82,73,66,30.30,29.94,15,7,15,0.00
2013-4-18,33.1,32.0,30.6,28.4,27.4,26.1,84,83,81,29.94,29.49,20,10,20,0.04
2013-4-19,38.9,32.3,28.1,27.2,23.0,12.3,85,70,46,29.94,29.46,24,10,24,0.16
2013-4-20,44.3,32.9,17.6,17.4,12.4,7.8,65,44,29,30.27,29.95,9,3,9,0.00
2013-4-21,43.7,38.0,30.6,38.0,30.4,14.8,80,74,48,30.27,29.97,20,9,20,0.21
2013-4-22,42.1,37.1,31.9,32.9,28.6,23.9,84,72,49,30.21,30.09,20,8,20,0.00
2013-4-23,43.4,35.0,27.0,27.6,23.8,16.7,84,66,35,30.12,30.01,18,7,18,0.02
2013-4-24,47.0,35.1,25.7,33.1,27.8,19.7,79,75,50,30.03,29.86,20,4,20,0.00
2013-4-25,52.4,40.4,31.0,29.8,27.7,25.2,80,63,37,30.15,29.93,12,6,12,0.00
2013-4-26,74.0,56.8,41.8,43.6,36.8,28.6,72,50,28,30.10,29.92,10,4,10,0.01
2013-4-27,77.4,59.6,35.8,44.7,34.2,25.3,78,45,16,30.11,29.86,11,3,11,0.00
2013-4-28,78.3,64.6,51.7,54.0,46.7,43.7,75,54,34,29.85,29.65,19,6,19,0.01
2013-4-29,77.0,63.1,46.6,52.3,39.8,33.0,68,46,22,29.81,29.55,11,4,11,0.00
2013-4-30,69.7,63.3,55.1,58.3,44.9,25.6,74,54,24,29.91,29.38,21,10,21,0.00